Miscellaneous Local Product
Issued by NWS Hastings, NE

Home | Current Version | Previous Version | Graphics & Text | Print | Product List | Glossary On
Versions: 1 2 3 4 5 6 7 8 9 10 11 12 13 14 15 16 17 18 19 20 21 22 23 24 25 26 27 28 29 30 31 32 33 34 35 36 37 38 39 40 41 42 43 44 45 46 47 48 49 50
000
AXUS43 KGID 201202
MISGRI

GID CWA HOURLY WEATHER ROUNDUP
NATIONAL WEATHER SERVICE HASTINGS NE
700 AM CDT SAT SEP 20 2014

NOTE: "FAIR" INDICATES FEW OR NO CLOUDS BELOW 12,000 FEET WITH NO
SIGNIFICANT WEATHER AND/OR OBSTRUCTIONS TO VISIBILITY.

...SOUTH CENTRAL NEBRASKA...

CITY           SKY/WX    TMP DP  RH WIND       PRES   REMARKS
GRAND ISLAND   CLEAR     66  61  84 CALM      29.91R
HASTINGS       PTCLDY    64  58  80 CALM      29.91R
KEARNEY        CLEAR     63  59  88 CALM      29.93R
ORD            PTCLDY    61  55  81 N5        29.93R
YORK           CLOUDY    66  63  88 S9        29.89S
AURORA         MOCLDY    67  62  85 SW5       29.90R
LEXINGTON      CLEAR     63  60  91 N8        29.95R
HOLDREGE       CLEAR     62  59  90 CALM      29.93R
HEBRON         PTCLDY    67  61  80 CALM      29.90R

...NEBRASKA PANHANDLE...

CITY           SKY/WX    TMP DP  RH WIND       PRES   REMARKS
CHADRON        CLEAR     47  45  93 SW7       30.07R
ALLIANCE       CLEAR     48  46  93 W3        30.09R
SCOTTSBLUFF    CLEAR     53  48  83 NW7       30.12R
SIDNEY         CLEAR     56  49  77 NW7       30.12R

...WESTERN AND NORTH CENTRAL NEBRASKA...

CITY           SKY/WX    TMP DP  RH WIND       PRES   REMARKS
VALENTINE      PTCLDY    54  51  90 W7        30.00R
AINSWORTH      PTCLDY    55  50  84 W3        29.98R
ONEILL         CLOUDY    59  57  93 W3        29.95R
BROKEN BOW     CLEAR     62  54  74 N9        29.96R
IMPERIAL       CLEAR     62  54  74 N14       30.01R
NORTH PLATTE   CLEAR     61  54  77 CALM      30.00R
MCCOOK         CLEAR     64  61  90 W3        29.93R

...EASTERN NEBRASKA...

CITY           SKY/WX    TMP DP  RH WIND       PRES   REMARKS
NORFOLK        MOCLDY    67  58  72 N9        29.90R
SO SIOUX CITY  PTCLDY    61  61 100 W6        29.87R
TEKAMAH        CLOUDY    67  65  93 SE6       29.86R
ALBION         PTCLDY    65  56  74 N7        29.92R
OMAHA EPPLEY   CLOUDY    70  66  87 S6        29.89R
OFFUTT AFB     CLOUDY    72  70  94 W7        29.87R THUNDER
MILLARD        CLOUDY    71  67  88 CALM      29.89R
LINCOLN        CLOUDY    69  66  90 S12       29.89S
NEBRASKA CITY    N/A     68  67  97 S7        29.94F THUNDER
BEATRICE       MOCLDY    67  64  89 E8        29.95R
FALLS CITY     CLOUDY    70  67  90 N7        29.97R

...NORTHERN KANSAS...

CITY           SKY/WX    TMP DP  RH WIND       PRES   REMARKS
GOODLAND       CLEAR     62  59  90 W9        30.00S
HILL CITY      CLEAR     67  62  84 SW10      29.91S
NORTON         SUNNY     64  59  82 SW6       29.91
PHILLIPSBURG   PTCLDY    66  59  77 CALM      29.90R
SMITH CENTER   CLEAR     64  59  82 S7        29.91R
BELOIT         CLEAR     66  63  88 S6        29.90S
HAYS           CLEAR     63  57  82 SW8       29.93S
RUSSELL        CLEAR     67  62  84 S14       29.91R
CONCORDIA      CLEAR     69  64  84 SW10      29.91R
SALINA         CLEAR     69  64  84 S13       29.92S
TOPEKA         PTCLDY    69  68  96 CALM      29.95R FOG



USA.gov is the U.S. government's official web portal to all federal, state and local government web resources and services.